Previsão horária em Barroso

Hoje, 28 Outubro, Quarta-feira

Tempo Temperatura Precipitação Vento Pressão Humidade
00:00 +21°C° 0.1 mm 1 m/s 675 mmHg 89%
01:00 +21°C° 0.2 mm 1 m/s 675 mmHg 89%
02:00 +21°C° 0.2 mm 1 m/s 675 mmHg 89%
03:00 +20°C° 0 mm 2 m/s 675 mmHg 89%
04:00 +21°C° 0.1 mm 1 m/s 675 mmHg 90%
05:00 +21°C° 0.1 mm 1 m/s 675 mmHg 90%
06:00 +21°C° 0.1 mm 1 m/s 675 mmHg 91%
07:00 +23°C° 0 mm 1 m/s 676 mmHg 82%
08:00 +25°C° 0 mm 2 m/s 677 mmHg 74%
09:00 +27°C° 0 mm 3 m/s 678 mmHg 65%
10:00 +28°C° 0.1 mm 4 m/s 677 mmHg 60%
11:00 +29°C° 0.1 mm 4 m/s 677 mmHg 56%
12:00 +30°C° 0.1 mm 5 m/s 677 mmHg 51%
13:00 +30°C° 0 mm 5 m/s 677 mmHg 51%
14:00 +30°C° 0 mm 5 m/s 676 mmHg 50%
15:00 +32°C° 0 mm 4 m/s 676 mmHg 49%
16:00 +29°C° 0 mm 3 m/s 676 mmHg 55%
17:00 +27°C° 0 mm 2 m/s 676 mmHg 60%
18:00 +25°C° 0 mm 2 m/s 676 mmHg 65%
19:00 +24°C° 0 mm 1 m/s 676 mmHg 68%
20:00 +23°C° 0 mm 1 m/s 677 mmHg 70%
21:00 +20°C° 0 mm 0 m/s 677 mmHg 73%
22:00 +20°C° 0 mm 0 m/s 677 mmHg 74%
23:00 +20°C° 0 mm 0 m/s 677 mmHg 75%

Amanhã, 29 Outubro, Quinta-feira

Tempo Temperatura Precipitação Vento Pressão Humidade
00:00 +20°C° 0 mm 0 m/s 677 mmHg 76%
01:00 +19°C° 0 mm 0 m/s 677 mmHg 78%
02:00 +19°C° 0 mm 0 m/s 677 mmHg 80%
03:00 +19°C° 0 mm 0 m/s 677 mmHg 82%
04:00 +19°C° 0 mm 0 m/s 677 mmHg 83%
05:00 +19°C° 0 mm 0 m/s 677 mmHg 83%
06:00 +21°C° 0 mm 1 m/s 678 mmHg 84%
07:00 +24°C° 0 mm 1 m/s 678 mmHg 76%
08:00 +26°C° 0 mm 2 m/s 679 mmHg 68%
09:00 +28°C° 0 mm 2 m/s 680 mmHg 61%
10:00 +29°C° 0 mm 2 m/s 680 mmHg 56%
11:00 +30°C° 0 mm 2 m/s 680 mmHg 51%
12:00 +31°C° 0 mm 2 m/s 679 mmHg 46%
13:00 +31°C° 0.1 mm 2 m/s 679 mmHg 47%
14:00 +31°C° 0.1 mm 2 m/s 678 mmHg 47%
15:00 +31°C° 0.1 mm 2 m/s 678 mmHg 48%
16:00 +29°C° 0.2 mm 3 m/s 678 mmHg 58%
17:00 +27°C° 0.2 mm 3 m/s 677 mmHg 68%
18:00 +24°C° 0.2 mm 3 m/s 677 mmHg 77%
19:00 +24°C° 0.2 mm 3 m/s 677 mmHg 80%
20:00 +23°C° 0.2 mm 2 m/s 677 mmHg 83%
21:00 +21°C° 0.2 mm 2 m/s 678 mmHg 85%
22:00 +21°C° 0.1 mm 2 m/s 678 mmHg 87%
23:00 +20°C° 0.1 mm 2 m/s 678 mmHg 89%

Depois de amanhã, 30 Outubro, Sexta-feira

Tempo Temperatura Precipitação Vento Pressão Humidade
00:00 +20°C° 0.1 mm 2 m/s 678 mmHg 91%
01:00 +21°C° 0.5 mm 1 m/s 678 mmHg 92%
02:00 +21°C° 0.5 mm 1 m/s 678 mmHg 94%
03:00 +20°C° 0.5 mm 1 m/s 678 mmHg 95%
04:00 +20°C° 0.6 mm 1 m/s 678 mmHg 95%
05:00 +20°C° 0.6 mm 1 m/s 679 mmHg 95%
06:00 +20°C° 0.6 mm 1 m/s 679 mmHg 95%
07:00 +21°C° 0.3 mm 1 m/s 679 mmHg 95%
08:00 +21°C° 0.3 mm 1 m/s 680 mmHg 94%
09:00 +21°C° 0.3 mm 1 m/s 680 mmHg 93%
10:00 +21°C° 1 mm 1 m/s 680 mmHg 94%
11:00 +21°C° 1 mm 1 m/s 680 mmHg 94%
12:00 +21°C° 1 mm 1 m/s 679 mmHg 95%
13:00 +21°C° 0.6 mm 1 m/s 679 mmHg 94%
14:00 +21°C° 0.6 mm 1 m/s 679 mmHg 94%
15:00 +21°C° 0.6 mm 1 m/s 679 mmHg 93%
16:00 +20°C° 0.4 mm 2 m/s 679 mmHg 94%
17:00 +20°C° 0.4 mm 2 m/s 679 mmHg 95%
18:00 +19°C° 0.4 mm 2 m/s 679 mmHg 96%
19:00 +19°C° 1.2 mm 3 m/s 679 mmHg 96%
20:00 +19°C° 1.2 mm 4 m/s 679 mmHg 95%
21:00 +17°C° 1.2 mm 5 m/s 680 mmHg 94%
22:00 +17°C° 0.3 mm 5 m/s 679 mmHg 93%
23:00 +16°C° 0.3 mm 6 m/s 679 mmHg 92%

31 Outubro, Sábado

Tempo Temperatura Precipitação Vento Pressão Humidade
00:00 +15°C° 0.3 mm 7 m/s 679 mmHg 92%
01:00 +15°C° 0 mm 7 m/s 678 mmHg 91%
02:00 +15°C° 0 mm 6 m/s 678 mmHg 90%
03:00 +15°C° 0 mm 6 m/s 678 mmHg 90%
04:00 +15°C° 0 mm 6 m/s 678 mmHg 90%
05:00 +15°C° 0 mm 5 m/s 678 mmHg 90%
06:00 +15°C° 0 mm 5 m/s 679 mmHg 90%
07:00 +15°C° 0.1 mm 4 m/s 679 mmHg 89%
08:00 +17°C° 0.1 mm 4 m/s 679 mmHg 89%
09:00 +17°C° 0.1 mm 4 m/s 680 mmHg 89%
10:00 +17°C° 0.6 mm 3 m/s 680 mmHg 89%
11:00 +17°C° 0.6 mm 3 m/s 679 mmHg 90%
12:00 +17°C° 0.6 mm 3 m/s 679 mmHg 91%
13:00 +17°C° 1.5 mm 3 m/s 679 mmHg 92%
14:00 +17°C° 1.5 mm 3 m/s 678 mmHg 94%
15:00 +16°C° 1.5 mm 3 m/s 678 mmHg 95%
16:00 +16°C° 0.7 mm 3 m/s 678 mmHg 95%
17:00 +16°C° 0.7 mm 3 m/s 678 mmHg 95%
18:00 +16°C° 0.7 mm 3 m/s 679 mmHg 94%
19:00 +16°C° 0 mm 3 m/s 679 mmHg 94%
20:00 +16°C° 0 mm 3 m/s 679 mmHg 94%
21:00 +16°C° 0 mm 3 m/s 679 mmHg 94%
22:00 +16°C° 0 mm 3 m/s 679 mmHg 94%
23:00 +16°C° 0 mm 3 m/s 679 mmHg 95%

1 Novembro, Domingo

Tempo Temperatura Precipitação Vento Pressão Humidade
00:00 +16°C° 0 mm 3 m/s 679 mmHg 95%
01:00 +16°C° 0 mm 3 m/s 678 mmHg 95%
02:00 +15°C° 0 mm 2 m/s 678 mmHg 94%
03:00 +15°C° 0 mm 2 m/s 678 mmHg 94%
04:00 +15°C° 0 mm 2 m/s 678 mmHg 94%
05:00 +15°C° 0 mm 2 m/s 678 mmHg 94%
06:00 +15°C° 0 mm 2 m/s 678 mmHg 93%
07:00 +16°C° 0 mm 3 m/s 679 mmHg 86%
08:00 +18°C° 0 mm 3 m/s 679 mmHg 79%
09:00 +20°C° 0 mm 4 m/s 679 mmHg 72%
10:00 +21°C° 0 mm 4 m/s 679 mmHg 69%
11:00 +22°C° 0 mm 4 m/s 679 mmHg 66%
12:00 +23°C° 0 mm 4 m/s 679 mmHg 62%
13:00 +23°C° 0.2 mm 4 m/s 679 mmHg 64%
14:00 +23°C° 0.2 mm 4 m/s 678 mmHg 66%
15:00 +23°C° 0.2 mm 4 m/s 678 mmHg 68%
16:00 +21°C° 0.3 mm 4 m/s 678 mmHg 74%
17:00 +17°C° 0.3 mm 5 m/s 678 mmHg 80%
18:00 +15°C° 0.3 mm 5 m/s 677 mmHg 86%
19:00 +15°C° 0 mm 5 m/s 678 mmHg 87%
20:00 +14°C° 0 mm 5 m/s 678 mmHg 87%
21:00 +13°C° 0 mm 5 m/s 678 mmHg 87%
22:00 +13°C° 0.1 mm 5 m/s 678 mmHg 87%
23:00 +13°C° 0.1 mm 4 m/s 678 mmHg 87%

2 Novembro, Segunda-feira

Tempo Temperatura Precipitação Vento Pressão Humidade
00:00 +13°C° 0.1 mm 4 m/s 678 mmHg 88%
01:00 +12°C° 0 mm 4 m/s 678 mmHg 88%
02:00 +12°C° 0 mm 4 m/s 678 mmHg 88%
03:00 +12°C° 0 mm 4 m/s 678 mmHg 88%
04:00 +12°C° 0 mm 3 m/s 678 mmHg 88%
05:00 +12°C° 0 mm 3 m/s 678 mmHg 89%
06:00 +12°C° 0 mm 3 m/s 678 mmHg 89%
07:00 +13°C° 0 mm 3 m/s 679 mmHg 81%
08:00 +16°C° 0 mm 3 m/s 679 mmHg 74%
09:00 +18°C° 0 mm 4 m/s 680 mmHg 66%
10:00 +19°C° 0 mm 4 m/s 680 mmHg 63%
11:00 +21°C° 0 mm 3 m/s 680 mmHg 59%
12:00 +22°C° 0 mm 3 m/s 680 mmHg 56%
13:00 +21°C° 0 mm 4 m/s 679 mmHg 60%
14:00 +21°C° 0 mm 4 m/s 679 mmHg 64%
15:00 +20°C° 0 mm 4 m/s 678 mmHg 68%
16:00 +19°C° 0 mm 4 m/s 678 mmHg 72%
17:00 +18°C° 0 mm 4 m/s 678 mmHg 76%
18:00 +17°C° 0 mm 3 m/s 678 mmHg 80%
19:00 +16°C° 0 mm 3 m/s 678 mmHg 82%
20:00 +14°C° 0 mm 4 m/s 679 mmHg 84%
21:00 +13°C° 0 mm 4 m/s 679 mmHg 85%
22:00 +13°C° 0 mm 4 m/s 679 mmHg 87%
23:00 +13°C° 0 mm 4 m/s 679 mmHg 88%
Mostrar mais